This is the latest recevied weather packets stored in our database for station/object K7UHP. If no packets are shown the sender has not sent any weather packets the latest 10 day(s).
| Time | Temp. | Humidity | Pressure | Rain* | Wind** | Luminosity | Snow |
|---|---|---|---|---|---|---|---|
| 1777538988 | 7.78° C | 63% | 1019 hPa | 0 mm | - | - | - |
| 1777538387 | 7.78° C | 61% | 1019 hPa | 0 mm | - | - | - |
| 1777537786 | 7.78° C | 59% | 1019.2 hPa | 0 mm | - | - | - |
| 1777537185 | 8.33° C | 56% | 1019.2 hPa | 0 mm | - | - | - |
| 1777536584 | 8.89° C | 54% | 1019.1 hPa | 0 mm | - | - | - |
| 1777535983 | 8.89° C | 54% | 1019.2 hPa | 0 mm | - | - | - |
| 1777535382 | 8.89° C | 55% | 1019.2 hPa | 0 mm | - | - | - |
| 1777534782 | 9.44° C | 54% | 1019.2 hPa | 0 mm | - | - | - |
| 1777534181 | 9.44° C | 54% | 1019.3 hPa | 0 mm | - | - | - |
| 1777533580 | 9.44° C | 58% | 1019.3 hPa | 0 mm | - | - | - |
| 1777532979 | 9.44° C | 50% | 1019.3 hPa | 0 mm | - | - | - |
| 1777532378 | 9.44° C | 50% | 1019.3 hPa | 0 mm | - | - | - |
| 1777531777 | 10° C | 48% | 1019.3 hPa | 0 mm | - | - | - |
| 1777531176 | 9.44° C | 48% | 1019.2 hPa | 0 mm | - | - | - |
| 1777530575 | 10° C | 48% | 1019.4 hPa | 0 mm | - | - | - |
| 1777529975 | 10° C | 48% | 1019.3 hPa | 0 mm | - | - | - |
| 1777529374 | 9.44° C | 49% | 1019.2 hPa | 0 mm | - | - | - |
| 1777528773 | 10° C | 48% | 1019.1 hPa | 0 mm | - | - | - |
| 1777528172 | 10° C | 45% | 1019 hPa | 0 mm | - | - | - |
| 1777527571 | 10.56° C | 45% | 1019 hPa | 0 mm | - | - | - |
| 1777526970 | 10.56° C | 44% | 1019 hPa | 0 mm | - | - | - |
| 1777526369 | 11.11° C | 44% | 1019.1 hPa | 0 mm | - | - | - |
| 1777525768 | 11.11° C | 42% | 1019.1 hPa | 0 mm | - | - | - |
| 1777525167 | 11.11° C | 41% | 1019.2 hPa | 0 mm | - | - | - |
| 1777524567 | 11.11° C | 41% | 1019.3 hPa | 0 mm | - | - | - |
* Rain latest hour (hover to see other rain measurements)
** Current wind speed in m/s (hover to see current wind gust speed)